[[{"header":{"parameterUnit":"m.s-1","parameterCategory":1,"la1":30.2991,"la2":30.254,"lo1":-89.0895,"lo2":-89.0444,"dy":0.0017,"dx":0.0017,"nx":28,"ny":28,"refTime":"2024-03-14T03:00:00:Z","depth":0,"parameterNumber":2,"parameterNumberName":"U-component_of_WINDS"},"data":[0,0,0,0,0,0,0,0,0,0,0,0,0,0,0,0,0,0,0,0,0,0,0,0,0,0,0,0,0,0,0,0,0,0,0,0,0,0,0,0,0,0,0,0,0,0,0,0,0,0,0,0,0,0,0,0,0,0,-1.1802,-1.1802,0,-1.1845,-1.1846,-1.1846,-1.1851,-1.1851,-1.185,-1.185,-1.1893,-1.1894,-1.1896,0,0,0,0,0,0,0,0,0,0,0,0,0,-1.1722,-1.1723,-1.1802,-1.1802,-1.1803,-1.1845,-1.1846,-1.1846,-1.1851,-1.1851,-1.185,-1.185,-1.1892,-1.1894,-1.1896,0,0,0,0,0,0,0,0,0,0,0,0,0,-1.176,-1.1724,-1.1802,-1.181,-1.1812,-1.1845,-1.1846,-1.1846,-1.1851,-1.1851,-1.185,-1.1849,-1.1892,-1.1894,-1.1896,-1.1924,0,0,-1.1904,-1.1905,0,0,0,0,0,0,0,0,-1.1758,-1.1763,-1.1808,-1.181,-1.1811,-1.1842,-1.1833,-1.1872,-1.1851,-1.1836,-1.185,-1.1849,-1.1876,-1.188,-1.189,-1.1926,-1.1927,-1.1904,-1.1905,-1.1906,-1.1907,0,0,0,0,0,0,0,-1.1755,-1.1761,-1.1819,-1.1809,-1.1811,-1.1812,-1.1816,-1.1841,-1.1859,-1.1837,-1.1838,-1.1843,-1.1877,-1.1887,-1.1891,-1.1928,-1.1904,-1.1906,-1.1907,-1.1908,-1.1988,-1.1988,0,0,0,0,0,0,-1.1751,-1.1759,-1.1817,-1.182,-1.1782,-1.1814,-1.1819,-1.1833,-1.1859,-1.1862,-1.1843,-1.1843,-1.1884,-1.1888,-1.1892,-1.1925,-1.1906,-1.1908,-1.191,-1.1987,-1.1988,-1.1989,0,0,0,0,0,0,-1.1749,-1.1756,-1.1816,-1.179,-1.1797,-1.1816,-1.1831,-1.1834,-1.1844,-1.1864,-1.1867,-1.1851,-1.1883,-1.1889,-1.1916,-1.1926,-1.1909,-1.1911,-1.1986,-1.1987,-1.1988,-1.1991,0,0,0,0,0,0,-1.1747,-1.1756,-1.1766,-1.179,-1.1799,-1.1839,-1.1832,-1.1835,-1.1848,-1.1848,-1.1871,-1.1874,-1.1883,-1.1912,-1.1918,-1.1929,-1.1913,-1.1985,-1.1987,-1.1988,-1.199,-1.1992,-1.1994,0,0,0,0,0,-1.1744,-1.1765,-1.1767,-1.1774,-1.1813,-1.1839,-1.1844,-1.1854,-1.1849,-1.186,-1.1872,-1.1874,-1.1925,-1.1915,-1.1921,-1.1934,-1.1985,-1.1986,-1.1988,-1.1989,-1.1991,-1.1993,0,0,0,0,0,0,-1.1742,-1.1769,-1.1771,-1.18,-1.1818,-1.184,-1.1854,-1.1857,-1.1876,-1.1875,-1.1886,-1.1891,-1.1917,-1.1928,-1.1917,-1.1961,-1.1954,-1.1957,-1.1953,-1.1955,-1.1957,-1.1953,-1.1915,0,0,0,0,0,-1.1746,-1.1766,-1.1787,-1.1811,-1.182,-1.1835,-1.1848,-1.1854,-1.1872,-1.1879,-1.1894,-1.1911,-1.1931,-1.1944,-1.1963,-1.1992,-1.1996,-1.2003,-1.2005,-1.2007,-1.2009,-1.2024,-1.2027,-1.1994,-1.1994,-1.1994,0,0,-1.1752,-1.1769,-1.1781,-1.1811,-1.1825,-1.1845,-1.1842,-1.1863,-1.1878,-1.1883,-1.1908,-1.192,-1.194,-1.1967,-1.198,-1.1977,-1.2019,-1.2009,-1.201,-1.2011,-1.2026,-1.2029,-1.2031,-1.1995,-1.1995,-1.1995,0,0,-1.1774,-1.1789,-1.181,-1.1824,-1.1846,-1.1856,-1.1861,-1.1884,-1.1891,-1.1918,-1.1922,-1.1939,-1.1973,-1.1987,-1.1999,-1.2026,-1.2027,-1.2032,-1.2041,-1.2055,-1.2058,-1.206,-1.2069,-1.2072,-1.2034,-1.2034,-1.2034,0,-1.1779,-1.1809,-1.1821,-1.1842,-1.1854,-1.186,-1.1881,-1.1895,-1.1921,-1.193,-1.1927,-1.1969,-1.1983,-1.2013,-1.202,-1.203,-1.2035,-1.2029,-1.2057,-1.2059,-1.2062,-1.207,-1.2073,-1.2034,-1.2034,-1.2034,-1.2034,0,-1.1814,-1.1835,-1.185,-1.1875,-1.189,-1.1911,-1.1925,-1.1938,-1.1943,-1.1954,-1.198,-1.1997,-1.202,-1.2028,-1.2033,-1.2058,-1.2056,-1.2055,-1.2048,-1.2065,-1.2073,-1.2076,-1.2035,-1.2035,-1.2035,-1.2034,0,0,-1.1835,-1.1867,-1.1872,-1.1883,-1.1908,-1.1924,-1.1945,-1.1967,-1.1978,-1.1996,-1.2014,-1.2042,-1.2041,-1.2054,-1.2061,-1.2074,-1.2093,-1.2071,-1.2072,-1.2073,-1.2121,-1.2121,-1.2125,-1.2094,-1.2095,-1.2096,-1.2119,0,-1.1859,-1.1897,-1.1907,-1.1939,-1.1958,-1.1964,-1.1982,-1.1998,-1.2009,-1.2026,-1.2038,-1.2057,-1.2055,-1.2063,-1.2076,-1.2088,-1.2102,-1.2086,-1.211,-1.211,-1.2103,-1.2129,-1.2129,-1.215,-1.2122,-1.2123,-1.2123,0,-1.1892,-1.191,-1.1944,-1.1965,-1.1974,-1.199,-1.2011,-1.2027,-1.2046,-1.2053,-1.2067,-1.2073,-1.2094,-1.2087,-1.2116,-1.2105,-1.2116,-1.2123,-1.2124,-1.2126,-1.2117,-1.213,-1.2157,-1.216,-1.2128,-1.2128,-1.2128,0,-1.1902,-1.1936,-1.196,-1.197,-1.1996,-1.2007,-1.2018,-1.2036,-1.2049,-1.2067,-1.2075,-1.2096,-1.2107,-1.2122,-1.2133,-1.2127,-1.2161,-1.2155,-1.2166,-1.2166,-1.2172,-1.2172,-1.22,-1.2181,-1.2181,-1.2181,-1.2181,0,-1.1927,-1.1947,-1.1965,-1.198,-1.2003,-1.2014,-1.2036,-1.2047,-1.2063,-1.208,-1.2087,-1.2102,-1.2116,-1.2133,-1.2142,-1.2164,-1.2169,-1.2175,-1.2176,-1.2173,-1.2173,-1.2179,-1.2178,-1.2182,-1.2181,-1.2181,-1.2181,0,-1.1942,-1.1956,-1.1982,-1.2004,-1.201,-1.2026,-1.2044,-1.2059,-1.2069,-1.209,-1.2096,-1.2112,-1.2133,-1.2146,-1.2172,-1.2177,-1.2202,-1.2204,-1.2195,-1.2196,-1.2206,-1.2205,-1.224,-1.2244,-1.2222,-1.2223,-1.2223,0,-1.1957,-1.1972,-1.1996,-1.2007,-1.2019,-1.2038,-1.205,-1.2063,-1.2076,-1.2098,-1.2109,-1.213,-1.2147,-1.218,-1.2194,-1.2214,-1.2215,-1.2226,-1.2218,-1.2215,-1.2214,-1.2213,-1.2214,-1.2227,-1.2227,-1.2228,-1.2228,0,-1.198,-1.1986,-1.2004,-1.2025,-1.204,-1.2057,-1.2073,-1.2082,-1.2097,-1.2112,-1.2133,-1.2146,-1.2173,-1.2193,-1.2214,-1.2225,-1.2229,-1.223,-1.2234,-1.223,-1.2224,-1.2227,-1.2198,-1.2229,-1.2229,-1.2229,-1.2229,-1.2229,-1.1995,-1.2008,-1.2027,-1.2047,-1.2061,-1.2076,-1.209,-1.2103,-1.2121,-1.2143,-1.2149,-1.2171,-1.2189,-1.2218,-1.2229,-1.2246,-1.2244,-1.225,-1.2251,-1.2252,-1.2251,-1.2223,-1.225,-1.225,-1.225,-1.225,-1.225,0,-1.2017,-1.203,-1.2048,-1.2071,-1.2087,-1.2089,-1.2108,-1.212,-1.214,-1.2156,-1.2173,-1.2197,-1.2217,-1.2232,-1.2253,-1.2263,-1.2265,-1.2268,-1.2267,-1.2269,-1.2252,-1.2247,-1.2266,-1.2266,-1.2266,-1.2266,-1.2266,-1.2266,-1.2031,-1.2054,-1.2062,-1.2092,-1.2104,-1.2125,-1.2135,-1.2149,-1.2163,-1.2189,-1.2205,-1.2216,-1.2232,-1.2253,-1.2271,-1.2275,-1.2282,-1.2284,-1.2288,-1.2272,-1.227,-1.2269,-1.2263,-1.2286,-1.2286,-1.2304,-1.2304,-1.2304]},{"header":{"parameterUnit":"m.s-1","parameterCategory":1,"la1":30.2991,"la2":30.254,"lo1":-89.0895,"lo2":-89.0444,"dy":0.0017,"dx":0.0017,"nx":28,"ny":28,"refTime":"2024-03-14T03:00:00:Z","depth":0,"parameterNumber":3,"parameterNumberName":"V-component_of_WINDS"},"data":[0,0,0,0,0,0,0,0,0,0,0,0,0,0,0,0,0,0,0,0,0,0,0,0,0,0,0,0,0,0,0,0,0,0,0,0,0,0,0,0,0,0,0,0,0,0,0,0,0,0,0,0,0,0,0,0,0,0,2.7926,2.7927,0,2.7962,2.7962,2.7963,2.7977,2.7977,2.7977,2.7976,2.8011,2.8012,2.8013,0,0,0,0,0,0,0,0,0,0,0,0,0,2.7871,2.7872,2.7926,2.7927,2.7927,2.7962,2.7962,2.7963,2.7977,2.7977,2.7977,2.7976,2.801,2.8012,2.8013,0,0,0,0,0,0,0,0,0,0,0,0,0,2.7899,2.7872,2.7926,2.7938,2.794,2.7962,2.7962,2.7963,2.7977,2.7977,2.7976,2.7976,2.801,2.8012,2.8013,2.8025,0,0,2.8018,2.8018,0,0,0,0,0,0,0,0,2.7898,2.7901,2.7936,2.7938,2.7939,2.7965,2.7955,2.7984,2.7977,2.7963,2.7976,2.7976,2.7995,2.7998,2.8005,2.8026,2.8028,2.8018,2.8019,2.8019,2.802,0,0,0,0,0,0,0,2.7896,2.79,2.794,2.7937,2.7939,2.7942,2.7946,2.7961,2.7979,2.7964,2.7965,2.7969,2.7996,2.8004,2.8006,2.8028,2.8018,2.8019,2.802,2.802,2.8064,2.8064,0,0,0,0,0,0,2.7892,2.7898,2.7939,2.7941,2.7918,2.7943,2.7948,2.7957,2.7979,2.7983,2.7969,2.797,2.8001,2.8004,2.8007,2.8024,2.8019,2.8021,2.8021,2.8064,2.8064,2.8064,0,0,0,0,0,0,2.7891,2.7895,2.7938,2.792,2.7926,2.7944,2.7954,2.7957,2.7965,2.7983,2.7986,2.7973,2.8001,2.8005,2.8021,2.8026,2.8021,2.8023,2.8063,2.8064,2.8064,2.8057,0,0,0,0,0,0,2.7889,2.7895,2.7899,2.792,2.7927,2.7951,2.7955,2.7958,2.7968,2.7968,2.7988,2.7991,2.8001,2.8019,2.8023,2.8028,2.8024,2.8063,2.8063,2.8064,2.8057,2.8058,2.8058,0,0,0,0,0,2.7887,2.7895,2.7899,2.7904,2.7933,2.7951,2.7955,2.7967,2.7968,2.7973,2.7985,2.799,2.8024,2.802,2.8025,2.803,2.8063,2.8063,2.8064,2.8057,2.8058,2.8058,0,0,0,0,0,0,2.7873,2.7898,2.7903,2.7918,2.7933,2.7954,2.796,2.7967,2.7981,2.7981,2.7995,2.7999,2.8015,2.8024,2.8019,2.8044,2.8044,2.8046,2.8038,2.8038,2.8038,2.8036,2.8025,0,0,0,0,0,2.7872,2.7885,2.7906,2.7917,2.7924,2.7941,2.7949,2.7958,2.7973,2.7979,2.7992,2.8007,2.8021,2.803,2.8044,2.8059,2.8064,2.8065,2.8065,2.8065,2.8067,2.8078,2.8079,2.8066,2.8066,2.8066,0,0,2.7869,2.7884,2.7891,2.7915,2.7927,2.7941,2.7946,2.7959,2.797,2.7981,2.7998,2.8008,2.8025,2.8041,2.8049,2.8049,2.8071,2.8066,2.8066,2.8067,2.8078,2.808,2.8081,2.8067,2.8066,2.8066,0,0,2.7871,2.7883,2.7896,2.7908,2.7927,2.7939,2.7942,2.7962,2.797,2.7987,2.7997,2.8009,2.8033,2.8046,2.8055,2.8065,2.8071,2.8069,2.807,2.8081,2.8082,2.8083,2.8088,2.809,2.807,2.807,2.807,0,2.7865,2.7886,2.79,2.7915,2.7925,2.7938,2.795,2.7962,2.7984,2.7991,2.7992,2.8024,2.8036,2.8056,2.8059,2.8066,2.807,2.8067,2.8081,2.8082,2.8083,2.8089,2.809,2.807,2.807,2.807,2.807,0,2.7879,2.7894,2.7901,2.7925,2.7936,2.7949,2.7966,2.7976,2.7984,2.7996,2.8014,2.8029,2.8048,2.8053,2.806,2.8075,2.8076,2.8078,2.8078,2.8084,2.8089,2.8091,2.807,2.807,2.807,2.807,0,0,2.7872,2.7905,2.7907,2.7919,2.7942,2.7954,2.7969,2.7988,2.7997,2.8013,2.8026,2.8047,2.8051,2.8061,2.807,2.8079,2.8089,2.8081,2.8082,2.8084,2.8109,2.8108,2.811,2.8093,2.8094,2.8094,2.8109,0,2.7878,2.7906,2.792,2.7941,2.7957,2.7969,2.7982,2.7998,2.801,2.8025,2.8037,2.8053,2.8055,2.8063,2.8072,2.8086,2.8095,2.8085,2.8107,2.8107,2.8103,2.8113,2.8111,2.8124,2.8111,2.8111,2.8111,0,2.7889,2.7907,2.793,2.7954,2.7961,2.7972,2.7993,2.8006,2.8025,2.8033,2.8047,2.8056,2.8073,2.8072,2.8096,2.8089,2.8099,2.8108,2.8108,2.8112,2.811,2.8118,2.8128,2.813,2.8114,2.8114,2.8114,0,2.7884,2.7913,2.7931,2.7941,2.7969,2.7977,2.7989,2.8008,2.802,2.8037,2.8045,2.8064,2.8075,2.8089,2.8104,2.8102,2.8127,2.8127,2.8135,2.8135,2.8141,2.814,2.8154,2.8145,2.8145,2.8145,2.8145,0,2.789,2.7904,2.793,2.7941,2.7958,2.7975,2.7991,2.8004,2.8021,2.8036,2.8048,2.8061,2.8079,2.8095,2.8107,2.8126,2.813,2.8138,2.8141,2.8138,2.8137,2.8145,2.8145,2.8145,2.8145,2.8145,2.8145,0,2.7886,2.7904,2.7925,2.7951,2.7958,2.797,2.7992,2.8004,2.8018,2.8036,2.8042,2.8062,2.8082,2.8098,2.8123,2.8131,2.8152,2.8155,2.8146,2.8148,2.8156,2.8156,2.8177,2.8181,2.8168,2.8168,2.8168,0,2.7889,2.7901,2.7929,2.7941,2.7953,2.7971,2.7984,2.8001,2.8014,2.8038,2.8048,2.8069,2.8086,2.8118,2.8135,2.8155,2.8159,2.8165,2.8162,2.8159,2.8161,2.8161,2.8163,2.8166,2.8166,2.8166,2.8166,0,2.7894,2.7903,2.7921,2.7943,2.7959,2.7977,2.7995,2.8003,2.8024,2.8038,2.806,2.8074,2.8101,2.8122,2.8145,2.8157,2.8166,2.8167,2.817,2.8167,2.8162,2.8167,2.8149,2.8166,2.8166,2.8166,2.8166,2.8166,2.7895,2.7907,2.793,2.795,2.7966,2.7984,2.7997,2.8014,2.8032,2.8057,2.8066,2.8088,2.8109,2.8141,2.8154,2.8172,2.8172,2.8177,2.8178,2.8179,2.818,2.8159,2.8175,2.8175,2.8175,2.8175,2.8175,0,2.7901,2.7917,2.7936,2.7963,2.7979,2.7987,2.8008,2.8022,2.8042,2.8061,2.8079,2.8105,2.8127,2.8147,2.8169,2.818,2.8185,2.8185,2.8185,2.8189,2.8177,2.8172,2.8182,2.8182,2.8182,2.8182,2.8182,2.8182,2.7906,2.7928,2.794,2.7971,2.7987,2.801,2.8022,2.8038,2.8054,2.8083,2.8102,2.8115,2.8135,2.816,2.8181,2.8186,2.8195,2.8195,2.8201,2.819,2.8189,2.8188,2.8185,2.8196,2.8196,2.8212,2.8212,2.8212]}]]